Time,TemperatureF,DewpointF,PressureIn,WindDirection,WindDirectionDegrees,WindSpeedMPH,WindSpeedGustMPH,Humidity,HourlyPrecipIn,Conditions,Clouds,dailyrainin,SoftwareType,DateUTC
2013-05-11 00:02:00,48.1,46.2,29.97,NNE,20,0.0,0.0,93,0.00,,,0.00,Wunderground v.1.15,2013-05-11 05:02:00,
2013-05-11 00:08:00,47.9,46.0,29.97,NNE,20,0.0,0.0,93,0.00,,,0.00,Wunderground v.1.15,2013-05-11 05:08:00,
2013-05-11 00:13:00,47.7,46.1,29.97,NNE,20,0.0,0.0,94,0.00,,,0.00,Wunderground v.1.15,2013-05-11 05:13:00,
2013-05-11 00:19:00,47.5,45.9,29.97,NNE,20,0.0,0.0,94,0.00,,,0.00,Wunderground v.1.15,2013-05-11 05:19:00,
2013-05-11 00:24:00,47.3,45.7,29.97,NNE,20,0.0,0.0,94,0.00,,,0.00,Wunderground v.1.15,2013-05-11 05:24:00,
2013-05-11 00:30:00,46.9,45.3,29.97,NNE,20,0.0,0.0,94,0.00,,,0.00,Wunderground v.1.15,2013-05-11 05:30:00,
2013-05-11 00:35:00,46.7,45.1,29.96,NNE,20,0.0,1.0,94,0.00,,,0.00,Wunderground v.1.15,2013-05-11 05:35:00,
2013-05-11 00:41:00,46.6,45.2,29.96,NNE,20,0.0,1.0,95,0.00,,,0.00,Wunderground v.1.15,2013-05-11 05:41:00,
2013-05-11 00:46:00,46.4,45.0,29.97,NNE,20,1.0,2.0,95,0.00,,,0.00,Wunderground v.1.15,2013-05-11 05:46:00,
2013-05-11 00:52:00,46.5,45.4,29.97,NNE,20,2.0,3.0,96,0.00,,,0.00,Wunderground v.1.15,2013-05-11 05:52:00,
2013-05-11 00:58:00,46.6,45.5,29.97,WNW,287,2.0,3.0,96,0.00,,,0.00,Wunderground v.1.15,2013-05-11 05:58:00,
2013-05-11 01:04:00,46.5,45.4,29.97,West,276,2.0,5.0,96,0.00,,,0.00,Wunderground v.1.15,2013-05-11 06:04:00,
2013-05-11 01:10:00,46.1,45.0,29.96,West,276,2.0,2.0,96,0.00,,,0.00,Wunderground v.1.15,2013-05-11 06:10:00,
2013-05-11 01:16:00,45.8,44.7,29.96,West,276,2.0,3.0,96,0.00,,,0.00,Wunderground v.1.15,2013-05-11 06:16:00,
2013-05-11 01:21:00,45.8,44.7,29.96,West,276,2.0,2.0,96,0.00,,,0.00,Wunderground v.1.15,2013-05-11 06:21:00,
2013-05-11 01:27:00,45.7,44.6,29.96,West,276,2.0,3.0,96,0.00,,,0.00,Wunderground v.1.15,2013-05-11 06:27:00,
2013-05-11 01:32:00,45.5,44.7,29.96,West,276,2.0,3.0,97,0.00,,,0.00,Wunderground v.1.15,2013-05-11 06:32:00,
2013-05-11 01:38:00,45.4,44.6,29.96,West,276,2.0,3.0,97,0.00,,,0.00,Wunderground v.1.15,2013-05-11 06:38:00,
2013-05-11 01:44:00,45.4,44.6,29.96,West,276,2.0,3.0,97,0.00,,,0.00,Wunderground v.1.15,2013-05-11 06:44:00,
2013-05-11 01:50:00,45.4,44.6,29.96,West,271,2.0,4.0,97,0.00,,,0.00,Wunderground v.1.15,2013-05-11 06:50:00,
2013-05-11 01:55:00,45.5,45.0,29.96,West,271,3.0,4.0,98,0.00,,,0.00,Wunderground v.1.15,2013-05-11 06:55:00,
2013-05-11 02:01:00,45.4,44.6,29.96,West,271,2.0,2.0,97,0.00,,,0.00,Wunderground v.1.15,2013-05-11 07:01:00,
2013-05-11 02:06:00,45.5,45.0,29.96,West,271,1.0,3.0,98,0.00,,,0.00,Wunderground v.1.15,2013-05-11 07:06:00,
2013-05-11 02:12:00,45.5,45.0,29.96,West,271,2.0,3.0,98,0.00,,,0.00,Wunderground v.1.15,2013-05-11 07:12:00,
2013-05-11 02:18:00,45.3,44.5,29.96,West,271,2.0,5.0,97,0.00,,,0.00,Wunderground v.1.15,2013-05-11 07:18:00,
2013-05-11 02:24:00,44.6,43.8,29.96,SW,236,3.0,4.0,97,0.00,,,0.00,Wunderground v.1.15,2013-05-11 07:24:00,
2013-05-11 02:30:00,44.6,44.1,29.95,SW,221,4.0,5.0,98,0.00,,,0.00,Wunderground v.1.15,2013-05-11 07:30:00,
2013-05-11 02:35:00,44.5,44.0,29.95,WSW,254,5.0,6.0,98,0.00,,,0.00,Wunderground v.1.15,2013-05-11 07:35:00,
2013-05-11 02:41:00,44.7,44.2,29.95,WSW,248,5.0,5.0,98,0.00,,,0.00,Wunderground v.1.15,2013-05-11 07:41:00,
2013-05-11 02:47:00,44.7,44.2,29.95,WSW,251,4.0,6.0,98,0.00,,,0.00,Wunderground v.1.15,2013-05-11 07:47:00,
2013-05-11 02:52:00,44.7,44.2,29.96,WSW,250,4.0,5.0,98,0.00,,,0.00,Wunderground v.1.15,2013-05-11 07:52:00,
2013-05-11 02:58:00,44.7,44.4,29.95,WSW,250,4.0,5.0,99,0.00,,,0.00,Wunderground v.1.15,2013-05-11 07:58:00,
2013-05-11 03:04:00,44.5,44.0,29.95,WSW,246,4.0,6.0,98,0.00,,,0.00,Wunderground v.1.15,2013-05-11 08:04:00,
2013-05-11 03:10:00,44.4,43.9,29.95,WSW,238,4.0,5.0,98,0.00,,,0.00,Wunderground v.1.15,2013-05-11 08:10:00,
2013-05-11 03:15:00,44.5,44.2,29.95,WSW,238,4.0,7.0,99,0.00,,,0.00,Wunderground v.1.15,2013-05-11 08:15:00,
2013-05-11 03:21:00,44.4,44.1,29.95,SW,236,5.0,5.0,99,0.00,,,0.00,Wunderground v.1.15,2013-05-11 08:21:00,
2013-05-11 03:26:00,44.5,44.2,29.95,SW,223,4.0,5.0,99,0.00,,,0.00,Wunderground v.1.15,2013-05-11 08:26:00,
2013-05-11 03:32:00,44.5,44.2,29.95,SSW,211,4.0,7.0,99,0.00,,,0.00,Wunderground v.1.15,2013-05-11 08:32:00,
2013-05-11 03:38:00,44.4,44.1,29.95,SSW,211,4.0,7.0,99,0.00,,,0.00,Wunderground v.1.15,2013-05-11 08:38:00,
2013-05-11 03:44:00,44.0,43.7,29.95,SSW,211,3.0,4.0,99,0.00,,,0.00,Wunderground v.1.15,2013-05-11 08:44:00,
2013-05-11 03:50:00,43.8,43.5,29.95,SSW,211,3.0,3.0,99,0.00,,,0.00,Wunderground v.1.15,2013-05-11 08:50:00,
2013-05-11 03:56:00,43.7,43.4,29.94,SSW,210,3.0,5.0,99,0.00,,,0.00,Wunderground v.1.15,2013-05-11 08:56:00,
2013-05-11 04:01:00,43.6,43.3,29.94,SSW,210,4.0,4.0,99,0.00,,,0.00,Wunderground v.1.15,2013-05-11 09:01:00,
2013-05-11 04:07:00,43.6,43.3,29.94,South,185,4.0,6.0,99,0.00,,,0.00,Wunderground v.1.15,2013-05-11 09:07:00,
2013-05-11 04:13:00,43.7,43.4,29.94,SSW,202,5.0,5.0,99,0.00,,,0.00,Wunderground v.1.15,2013-05-11 09:13:00,
2013-05-11 04:18:00,43.6,43.3,29.94,SSW,208,5.0,6.0,99,0.00,,,0.00,Wunderground v.1.15,2013-05-11 09:18:00,
2013-05-11 04:25:00,43.5,43.2,29.94,SSW,209,5.0,6.0,99,0.00,,,0.00,Wunderground v.1.15,2013-05-11 09:25:00,
2013-05-11 04:30:00,43.5,43.2,29.94,SSW,208,6.0,7.0,99,0.00,,,0.00,Wunderground v.1.15,2013-05-11 09:30:00,
2013-05-11 04:36:00,43.5,43.5,29.94,South,186,6.0,7.0,100,0.00,,,0.00,Wunderground v.1.15,2013-05-11 09:36:00,
2013-05-11 04:41:00,43.5,43.2,29.94,SSW,197,5.0,5.0,99,0.00,,,0.00,Wunderground v.1.15,2013-05-11 09:41:00,
2013-05-11 04:47:00,43.4,43.1,29.93,SSW,196,5.0,6.0,99,0.00,,,0.00,Wunderground v.1.15,2013-05-11 09:47:00,
2013-05-11 04:53:00,43.4,43.1,29.93,SSW,206,5.0,7.0,99,0.00,,,0.00,Wunderground v.1.15,2013-05-11 09:53:00,
2013-05-11 04:59:00,43.4,43.4,29.93,SSW,212,5.0,7.0,100,0.00,,,0.00,Wunderground v.1.15,2013-05-11 09:59:00,
2013-05-11 05:04:00,43.4,43.4,29.93,SSW,201,4.0,6.0,100,0.00,,,0.00,Wunderground v.1.15,2013-05-11 10:04:00,
2013-05-11 05:10:00,43.3,43.3,29.93,SSW,203,4.0,4.0,100,0.00,,,0.00,Wunderground v.1.15,2013-05-11 10:10:00,
2013-05-11 05:16:00,43.5,43.5,29.93,SSW,211,4.0,5.0,100,0.00,,,0.00,Wunderground v.1.15,2013-05-11 10:16:00,
2013-05-11 05:21:00,43.5,43.5,29.93,SSW,211,5.0,7.0,100,0.00,,,0.00,Wunderground v.1.15,2013-05-11 10:21:00,
2013-05-11 05:27:00,43.8,43.8,29.93,SSW,202,6.0,9.0,100,0.00,,,0.00,Wunderground v.1.15,2013-05-11 10:27:00,
2013-05-11 05:33:00,43.8,43.8,29.92,SSW,208,6.0,9.0,100,0.00,,,0.00,Wunderground v.1.15,2013-05-11 10:33:00,
2013-05-11 05:39:00,44.2,44.2,29.92,SSW,192,7.0,9.0,100,0.00,,,0.00,Wunderground v.1.15,2013-05-11 10:39:00,
2013-05-11 05:45:00,44.2,44.2,29.92,South,188,6.0,9.0,100,0.00,,,0.00,Wunderground v.1.15,2013-05-11 10:45:00,
2013-05-11 05:50:00,44.0,44.0,29.92,South,182,6.0,6.0,100,0.00,,,0.00,Wunderground v.1.15,2013-05-11 10:50:00,
2013-05-11 05:56:00,44.0,44.0,29.92,SSW,197,6.0,7.0,100,0.00,,,0.00,Wunderground v.1.15,2013-05-11 10:56:00,
2013-05-11 06:01:00,44.2,44.2,29.91,SSW,200,6.0,8.0,100,0.00,,,0.00,Wunderground v.1.15,2013-05-11 11:01:00,
2013-05-11 06:07:00,44.4,44.4,29.91,SSW,192,7.0,10.0,100,0.00,,,0.00,Wunderground v.1.15,2013-05-11 11:07:00,
2013-05-11 06:13:00,44.3,44.3,29.92,SSW,201,7.0,7.0,100,0.00,,,0.00,Wunderground v.1.15,2013-05-11 11:13:00,
2013-05-11 06:18:00,44.4,44.4,29.92,SSW,195,6.0,7.0,100,0.00,,,0.00,Wunderground v.1.15,2013-05-11 11:18:00,
2013-05-11 06:25:00,44.5,44.5,29.92,SSW,195,6.0,7.0,100,0.00,,,0.00,Wunderground v.1.15,2013-05-11 11:25:00,
2013-05-11 06:30:00,44.6,44.6,29.91,SSW,204,6.0,7.0,100,0.00,,,0.00,Wunderground v.1.15,2013-05-11 11:30:00,
2013-05-11 06:36:00,45.0,45.0,29.91,South,185,7.0,10.0,100,0.00,,,0.00,Wunderground v.1.15,2013-05-11 11:36:00,
2013-05-11 06:41:00,45.3,45.3,29.91,South,186,8.0,10.0,100,0.00,,,0.00,Wunderground v.1.15,2013-05-11 11:41:00,
2013-05-11 06:47:00,45.5,45.5,29.91,SSW,198,8.0,12.0,100,0.00,,,0.00,Wunderground v.1.15,2013-05-11 11:47:00,
2013-05-11 06:53:00,45.8,45.8,29.91,SSW,192,8.0,12.0,100,0.00,,,0.00,Wunderground v.1.15,2013-05-11 11:53:00,
2013-05-11 06:59:00,46.0,46.0,29.90,South,184,7.0,12.0,100,0.00,,,0.00,Wunderground v.1.15,2013-05-11 11:59:00,
2013-05-11 07:05:00,46.1,46.1,29.91,SSW,211,7.0,9.0,100,0.00,,,0.00,Wunderground v.1.15,2013-05-11 12:05:00,
2013-05-11 07:10:00,46.3,46.3,29.90,South,188,7.0,10.0,100,0.00,,,0.00,Wunderground v.1.15,2013-05-11 12:10:00,
2013-05-11 07:16:00,46.4,46.4,29.89,South,187,8.0,14.0,100,0.00,,,0.00,Wunderground v.1.15,2013-05-11 12:16:00,
2013-05-11 07:22:00,46.7,46.7,29.89,SSW,194,8.0,9.0,100,0.00,,,0.00,Wunderground v.1.15,2013-05-11 12:22:00,
2013-05-11 07:28:00,47.0,47.0,29.90,SSW,202,7.0,12.0,100,0.00,,,0.00,Wunderground v.1.15,2013-05-11 12:28:00,
2013-05-11 07:34:00,47.5,47.5,29.89,SW,225,9.0,12.0,100,0.00,,,0.00,Wunderground v.1.15,2013-05-11 12:34:00,
2013-05-11 07:40:00,47.9,47.9,29.89,South,186,10.0,12.0,100,0.00,,,0.00,Wunderground v.1.15,2013-05-11 12:40:00,
2013-05-11 07:45:00,48.1,48.1,29.89,SSW,205,9.0,10.0,100,0.00,,,0.00,Wunderground v.1.15,2013-05-11 12:45:00,
2013-05-11 07:51:00,48.3,48.3,29.89,SW,227,8.0,8.0,100,0.00,,,0.00,Wunderground v.1.15,2013-05-11 12:51:00,
2013-05-11 07:56:00,48.5,48.5,29.88,SW,219,8.0,8.0,100,0.00,,,0.00,Wunderground v.1.15,2013-05-11 12:56:00,
2013-05-11 08:01:00,48.8,48.8,29.88,SSW,207,8.0,10.0,100,0.00,,,0.00,Wunderground v.1.15,2013-05-11 13:01:00,
2013-05-11 08:07:00,49.2,49.2,29.87,SSW,197,8.0,12.0,100,0.00,,,0.00,Wunderground v.1.15,2013-05-11 13:07:00,
2013-05-11 08:13:00,49.7,49.7,29.88,SSW,194,7.0,11.0,100,0.00,,,0.00,Wunderground v.1.15,2013-05-11 13:13:00,
2013-05-11 08:19:00,50.0,50.0,29.87,SW,235,7.0,11.0,100,0.00,,,0.00,Wunderground v.1.15,2013-05-11 13:19:00,
2013-05-11 08:25:00,50.5,50.5,29.88,South,179,7.0,10.0,100,0.00,,,0.00,Wunderground v.1.15,2013-05-11 13:25:00,
2013-05-11 08:30:00,50.9,50.6,29.88,WSW,256,8.0,8.0,99,0.00,,,0.01,Wunderground v.1.15,2013-05-11 13:30:00,
2013-05-11 08:36:00,50.9,50.6,29.87,SW,227,9.0,12.0,99,0.00,,,0.01,Wunderground v.1.15,2013-05-11 13:36:00,
2013-05-11 08:41:00,51.2,50.7,29.87,SW,220,9.0,9.0,98,0.00,,,0.01,Wunderground v.1.15,2013-05-11 13:41:00,
2013-05-11 08:47:00,51.5,51.0,29.88,WSW,246,9.0,11.0,98,0.00,,,0.01,Wunderground v.1.15,2013-05-11 13:47:00,
2013-05-11 08:53:00,51.9,51.1,29.88,SW,228,10.0,10.0,97,0.00,,,0.01,Wunderground v.1.15,2013-05-11 13:53:00,
2013-05-11 08:58:00,52.2,51.4,29.87,WSW,247,10.0,14.0,97,0.00,,,0.01,Wunderground v.1.15,2013-05-11 13:58:00,
2013-05-11 09:04:00,52.9,52.1,29.87,SW,236,10.0,13.0,97,0.00,,,0.01,Wunderground v.1.15,2013-05-11 14:04:00,
2013-05-11 09:10:00,53.3,51.9,29.87,West,263,9.0,12.0,95,0.00,,,0.01,Wunderground v.1.15,2013-05-11 14:10:00,
2013-05-11 09:15:00,53.9,52.2,29.86,West,264,10.0,14.0,94,0.00,,,0.01,Wunderground v.1.15,2013-05-11 14:15:00,
2013-05-11 09:21:00,54.2,51.9,29.87,West,269,11.0,14.0,92,0.00,,,0.01,Wunderground v.1.15,2013-05-11 14:21:00,
2013-05-11 09:26:00,54.7,51.5,29.87,WNW,286,12.0,16.0,89,0.00,,,0.01,Wunderground v.1.15,2013-05-11 14:26:00,
2013-05-11 09:32:00,54.7,50.9,29.87,South,180,12.0,14.0,87,0.00,,,0.01,Wunderground v.1.15,2013-05-11 14:32:00,
2013-05-11 09:37:00,55.0,51.2,29.87,WSW,254,12.0,18.0,87,0.00,,,0.01,Wunderground v.1.15,2013-05-11 14:37:00,
2013-05-11 09:43:00,55.3,50.5,29.87,WSW,254,13.0,19.0,84,0.00,,,0.01,Wunderground v.1.15,2013-05-11 14:43:00,
2013-05-11 09:48:00,55.4,50.6,29.87,WNW,286,13.0,19.0,84,0.00,,,0.01,Wunderground v.1.15,2013-05-11 14:48:00,
2013-05-11 09:54:00,55.1,49.7,29.87,West,276,14.0,18.0,82,0.00,,,0.01,Wunderground v.1.15,2013-05-11 14:54:00,
2013-05-11 10:00:00,54.8,49.4,29.87,NNW,329,15.0,15.0,82,0.00,,,0.01,Wunderground v.1.15,2013-05-11 15:00:00,
2013-05-11 10:05:00,54.4,47.7,29.88,NW,311,17.0,25.0,78,0.00,,,0.01,Wunderground v.1.15,2013-05-11 15:05:00,
2013-05-11 10:11:00,54.4,48.0,29.88,NW,309,19.0,21.0,79,0.00,,,0.01,Wunderground v.1.15,2013-05-11 15:11:00,
2013-05-11 10:16:00,54.8,48.4,29.88,WNW,298,19.0,24.0,79,0.00,,,0.01,Wunderground v.1.15,2013-05-11 15:16:00,
2013-05-11 10:22:00,54.7,48.3,29.88,NNW,329,19.0,21.0,79,0.00,,,0.01,Wunderground v.1.15,2013-05-11 15:22:00,
2013-05-11 10:28:00,55.5,49.1,29.88,WNW,302,17.0,21.0,79,0.00,,,0.01,Wunderground v.1.15,2013-05-11 15:28:00,
2013-05-11 10:33:00,54.9,47.8,29.88,West,274,16.0,22.0,77,0.00,,,0.01,Wunderground v.1.15,2013-05-11 15:33:00,
2013-05-11 10:39:00,54.8,47.0,29.89,West,281,16.0,22.0,75,0.00,,,0.01,Wunderground v.1.15,2013-05-11 15:39:00,
2013-05-11 10:45:00,55.6,47.8,29.89,WNW,303,15.0,20.0,75,0.00,,,0.01,Wunderground v.1.15,2013-05-11 15:45:00,
2013-05-11 10:50:00,55.3,46.8,29.89,WNW,284,17.0,18.0,73,0.00,,,0.01,Wunderground v.1.15,2013-05-11 15:50:00,
2013-05-11 10:56:00,55.8,46.2,29.89,West,265,20.0,25.0,70,0.00,,,0.01,Wunderground v.1.15,2013-05-11 15:56:00,
2013-05-11 11:01:00,56.0,46.4,29.89,WNW,295,19.0,21.0,70,0.00,,,0.01,Wunderground v.1.15,2013-05-11 16:01:00,
2013-05-11 11:07:00,56.4,47.1,29.89,WNW,302,18.0,21.0,71,0.00,,,0.01,Wunderground v.1.15,2013-05-11 16:07:00,
2013-05-11 11:13:00,55.4,45.0,29.90,West,276,17.0,18.0,68,0.00,,,0.01,Wunderground v.1.15,2013-05-11 16:13:00,
2013-05-11 11:18:00,55.1,45.5,29.90,NW,313,18.0,21.0,70,0.00,,,0.01,Wunderground v.1.15,2013-05-11 16:18:00,
2013-05-11 11:24:00,55.1,43.1,29.90,WSW,256,17.0,18.0,64,0.00,,,0.01,Wunderground v.1.15,2013-05-11 16:24:00,
2013-05-11 11:30:00,54.9,41.3,29.90,NNW,334,16.0,20.0,60,0.00,,,0.01,Wunderground v.1.15,2013-05-11 16:30:00,
2013-05-11 11:35:00,55.6,41.9,29.90,WNW,303,15.0,20.0,60,0.00,,,0.01,Wunderground v.1.15,2013-05-11 16:35:00,
2013-05-11 11:40:00,55.5,43.5,29.91,NW,319,15.0,15.0,64,0.00,,,0.01,Wunderground v.1.15,2013-05-11 16:40:00,
2013-05-11 11:46:00,56.0,43.6,29.90,SSW,201,15.0,20.0,63,0.00,,,0.01,Wunderground v.1.15,2013-05-11 16:46:00,
2013-05-11 11:52:00,56.0,43.2,29.90,West,277,19.0,25.0,62,0.00,,,0.01,Wunderground v.1.15,2013-05-11 16:52:00,
2013-05-11 11:57:00,56.3,42.1,29.91,NNW,329,20.0,25.0,59,0.00,,,0.01,Wunderground v.1.15,2013-05-11 16:57:00,
2013-05-11 12:03:00,56.2,37.8,29.91,West,271,19.0,25.0,50,0.00,,,0.01,Wunderground v.1.15,2013-05-11 17:03:00,
2013-05-11 12:10:00,56.1,36.7,29.91,West,281,20.0,25.0,48,0.00,,,0.01,Wunderground v.1.15,2013-05-11 17:10:00,
2013-05-11 12:15:00,56.8,38.9,29.92,WNW,294,19.0,22.0,51,0.00,,,0.01,Wunderground v.1.15,2013-05-11 17:15:00,
2013-05-11 12:20:00,56.2,34.0,29.92,WNW,302,21.0,21.0,43,0.00,,,0.01,Wunderground v.1.15,2013-05-11 17:20:00,
2013-05-11 12:26:00,56.0,32.6,29.93,NW,304,22.0,25.0,41,0.00,,,0.01,Wunderground v.1.15,2013-05-11 17:26:00,
2013-05-11 12:31:00,56.4,35.3,29.92,NNW,329,19.0,19.0,45,0.00,,,0.01,Wunderground v.1.15,2013-05-11 17:31:00,
2013-05-11 12:37:00,56.2,30.9,29.92,NNW,331,18.0,29.0,38,0.00,,,0.01,Wunderground v.1.15,2013-05-11 17:37:00,
2013-05-11 12:43:00,56.2,32.8,29.92,NW,324,22.0,28.0,41,0.00,,,0.01,Wunderground v.1.15,2013-05-11 17:43:00,
2013-05-11 12:48:00,56.5,33.7,29.93,WNW,301,21.0,32.0,42,0.00,,,0.01,Wunderground v.1.15,2013-05-11 17:48:00,
2013-05-11 12:54:00,56.4,32.4,29.93,NW,317,20.0,26.0,40,0.00,,,0.01,Wunderground v.1.15,2013-05-11 17:54:00,
2013-05-11 13:00:00,56.4,32.4,29.93,NW,310,20.0,24.0,40,0.00,,,0.01,Wunderground v.1.15,2013-05-11 18:00:00,
2013-05-11 13:05:00,56.2,30.9,29.93,NW,306,22.0,28.0,38,0.00,,,0.01,Wunderground v.1.15,2013-05-11 18:05:00,
2013-05-11 13:11:00,56.7,33.2,29.92,NW,320,20.0,20.0,41,0.00,,,0.01,Wunderground v.1.15,2013-05-11 18:11:00,
2013-05-11 13:17:00,56.8,36.8,29.93,NW,321,19.0,25.0,47,0.00,,,0.01,Wunderground v.1.15,2013-05-11 18:17:00,
2013-05-11 13:22:00,56.4,35.9,29.93,WNW,303,20.0,28.0,46,0.00,,,0.01,Wunderground v.1.15,2013-05-11 18:22:00,
2013-05-11 13:28:00,57.1,35.4,29.93,NW,323,20.0,28.0,44,0.00,,,0.01,Wunderground v.1.15,2013-05-11 18:28:00,
2013-05-11 13:33:00,57.2,36.6,29.93,NW,323,17.0,27.0,46,0.00,,,0.01,Wunderground v.1.15,2013-05-11 18:33:00,
2013-05-11 13:40:00,56.5,34.3,29.94,WNW,292,19.0,27.0,43,0.00,,,0.01,Wunderground v.1.15,2013-05-11 18:40:00,
2013-05-11 13:45:00,56.5,34.3,29.94,NW,321,21.0,27.0,43,0.00,,,0.01,Wunderground v.1.15,2013-05-11 18:45:00,
2013-05-11 13:51:00,56.2,32.8,29.94,WNW,282,19.0,23.0,41,0.00,,,0.01,Wunderground v.1.15,2013-05-11 18:51:00,
2013-05-11 13:56:00,56.3,30.3,29.94,NW,324,19.0,27.0,37,0.00,,,0.01,Wunderground v.1.15,2013-05-11 18:56:00,
2013-05-11 14:02:00,56.1,32.7,29.94,WNW,295,20.0,21.0,41,0.00,,,0.01,Wunderground v.1.15,2013-05-11 19:02:00,
2013-05-11 14:07:00,55.7,31.7,29.95,NW,321,20.0,24.0,40,0.00,,,0.01,Wunderground v.1.15,2013-05-11 19:07:00,
2013-05-11 14:13:00,54.9,32.8,29.95,NW,323,19.0,24.0,43,0.00,,,0.01,Wunderground v.1.15,2013-05-11 19:13:00,
2013-05-11 14:18:00,54.7,34.8,29.96,NW,315,19.0,25.0,47,0.00,,,0.01,Wunderground v.1.15,2013-05-11 19:18:00,
2013-05-11 14:24:00,54.5,33.6,29.95,NW,320,21.0,28.0,45,0.00,,,0.01,Wunderground v.1.15,2013-05-11 19:24:00,
2013-05-11 14:30:00,55.4,32.1,29.95,NW,324,20.0,28.0,41,0.00,,,0.01,Wunderground v.1.15,2013-05-11 19:30:00,
2013-05-11 14:35:00,54.6,32.5,29.96,NW,309,19.0,26.0,43,0.00,,,0.01,Wunderground v.1.15,2013-05-11 19:35:00,
2013-05-11 14:41:00,54.8,33.8,29.96,WNW,298,19.0,20.0,45,0.00,,,0.01,Wunderground v.1.15,2013-05-11 19:41:00,
2013-05-11 14:46:00,54.7,32.6,29.97,West,261,19.0,24.0,43,0.00,,,0.01,Wunderground v.1.15,2013-05-11 19:46:00,
2013-05-11 14:52:00,54.9,33.9,29.96,NNW,333,20.0,23.0,45,0.00,,,0.01,Wunderground v.1.15,2013-05-11 19:52:00,
2013-05-11 14:57:00,55.7,32.9,29.98,West,281,21.0,26.0,42,0.00,,,0.01,Wunderground v.1.15,2013-05-11 19:57:00,
2013-05-11 15:03:00,54.7,30.2,29.97,WNW,289,21.0,23.0,39,0.00,,,0.01,Wunderground v.1.15,2013-05-11 20:03:00,
2013-05-11 15:08:00,54.4,31.2,29.97,WNW,294,22.0,28.0,41,0.00,,,0.01,Wunderground v.1.15,2013-05-11 20:08:00,
2013-05-11 15:13:00,54.4,32.3,29.97,WNW,296,20.0,21.0,43,0.00,,,0.01,Wunderground v.1.15,2013-05-11 20:13:00,
2013-05-11 15:20:00,53.4,29.7,29.97,NW,313,21.0,29.0,40,0.00,,,0.01,Wunderground v.1.15,2013-05-11 20:20:00,
2013-05-11 15:25:00,53.9,30.7,29.97,WNW,288,19.0,24.0,41,0.00,,,0.01,Wunderground v.1.15,2013-05-11 20:25:00,
2013-05-11 15:31:00,53.6,29.8,29.97,NNW,330,18.0,18.0,40,0.00,,,0.01,Wunderground v.1.15,2013-05-11 20:31:00,
2013-05-11 15:36:00,54.6,29.5,29.97,West,281,20.0,20.0,38,0.00,,,0.01,Wunderground v.1.15,2013-05-11 20:36:00,
2013-05-11 15:42:00,54.0,30.8,29.97,WNW,285,18.0,19.0,41,0.00,,,0.01,Wunderground v.1.15,2013-05-11 20:42:00,
2013-05-11 15:47:00,53.9,28.2,29.97,NW,314,19.0,26.0,37,0.00,,,0.01,Wunderground v.1.15,2013-05-11 20:47:00,
2013-05-11 15:53:00,55.0,31.7,29.98,SW,230,21.0,26.0,41,0.00,,,0.01,Wunderground v.1.15,2013-05-11 20:53:00,
2013-05-11 15:58:00,55.3,33.7,29.98,NNW,340,21.0,28.0,44,0.00,,,0.01,Wunderground v.1.15,2013-05-11 20:58:00,
2013-05-11 16:03:00,53.4,31.4,29.98,NW,326,21.0,33.0,43,0.00,,,0.01,Wunderground v.1.15,2013-05-11 21:03:00,
2013-05-11 16:10:00,52.7,30.2,29.98,NW,304,19.0,33.0,42,0.00,,,0.01,Wunderground v.1.15,2013-05-11 21:10:00,
2013-05-11 16:15:00,54.0,31.4,29.98,WNW,294,18.0,21.0,42,0.00,,,0.01,Wunderground v.1.15,2013-05-11 21:15:00,
2013-05-11 16:20:00,54.6,32.5,29.98,NW,315,18.0,26.0,43,0.00,,,0.01,Wunderground v.1.15,2013-05-11 21:20:00,
2013-05-11 16:26:00,54.2,31.0,29.98,NW,318,19.0,27.0,41,0.00,,,0.01,Wunderground v.1.15,2013-05-11 21:26:00,
2013-05-11 16:31:00,54.2,31.6,29.99,NW,325,19.0,21.0,42,0.00,,,0.01,Wunderground v.1.15,2013-05-11 21:31:00,
2013-05-11 16:37:00,54.9,31.6,29.99,WNW,283,20.0,32.0,41,0.00,,,0.01,Wunderground v.1.15,2013-05-11 21:37:00,
2013-05-11 16:43:00,54.1,31.5,29.99,NW,305,21.0,25.0,42,0.00,,,0.01,Wunderground v.1.15,2013-05-11 21:43:00,
2013-05-11 16:49:00,53.2,30.7,29.99,WNW,296,20.0,26.0,42,0.00,,,0.01,Wunderground v.1.15,2013-05-11 21:49:00,
2013-05-11 16:55:00,54.2,28.5,29.99,West,281,18.0,25.0,37,0.00,,,0.01,Wunderground v.1.15,2013-05-11 21:55:00,
2013-05-11 17:01:00,54.5,30.0,30.00,NNW,334,17.0,22.0,39,0.00,,,0.01,Wunderground v.1.15,2013-05-11 22:01:00,
2013-05-11 17:06:00,53.5,28.5,30.00,WNW,289,19.0,25.0,38,0.00,,,0.01,Wunderground v.1.15,2013-05-11 22:06:00,
2013-05-11 17:12:00,53.7,29.3,30.00,West,279,22.0,22.0,39,0.00,,,0.01,Wunderground v.1.15,2013-05-11 22:12:00,
2013-05-11 17:17:00,54.1,29.0,30.00,West,281,19.0,22.0,38,0.00,,,0.01,Wunderground v.1.15,2013-05-11 22:17:00,
2013-05-11 17:22:00,53.9,28.8,30.00,WNW,290,17.0,29.0,38,0.00,,,0.01,Wunderground v.1.15,2013-05-11 22:22:00,
2013-05-11 17:28:00,52.4,32.7,30.00,North,349,19.0,29.0,47,0.00,,,0.01,Wunderground v.1.15,2013-05-11 22:28:00,
2013-05-11 17:35:00,52.7,34.6,30.01,NW,314,16.0,19.0,50,0.00,,,0.01,Wunderground v.1.15,2013-05-11 22:35:00,
2013-05-11 17:40:00,52.1,32.5,30.01,NNW,346,14.0,14.0,47,0.00,,,0.01,Wunderground v.1.15,2013-05-11 22:40:00,
2013-05-11 17:46:00,52.2,31.5,30.01,WNW,294,15.0,24.0,45,0.00,,,0.01,Wunderground v.1.15,2013-05-11 22:46:00,
2013-05-11 17:51:00,53.2,30.7,30.01,West,281,19.0,26.0,42,0.00,,,0.01,Wunderground v.1.15,2013-05-11 22:51:00,
2013-05-11 17:57:00,53.3,31.4,30.02,West,272,20.0,26.0,43,0.00,,,0.01,Wunderground v.1.15,2013-05-11 22:57:00,
2013-05-11 18:02:00,53.0,30.5,30.01,WNW,296,19.0,22.0,42,0.00,,,0.01,Wunderground v.1.15,2013-05-11 23:02:00,
2013-05-11 18:08:00,52.8,29.7,30.01,WNW,294,20.0,27.0,41,0.00,,,0.01,Wunderground v.1.15,2013-05-11 23:08:00,
2013-05-11 18:14:00,52.6,31.3,30.02,WNW,286,19.0,21.0,44,0.00,,,0.01,Wunderground v.1.15,2013-05-11 23:14:00,
2013-05-11 18:20:00,52.4,32.7,30.02,WNW,292,17.0,17.0,47,0.00,,,0.01,Wunderground v.1.15,2013-05-11 23:20:00,
2013-05-11 18:25:00,50.9,32.4,30.02,NW,307,18.0,23.0,49,0.00,,,0.01,Wunderground v.1.15,2013-05-11 23:25:00,
2013-05-11 18:31:00,51.2,31.6,30.02,West,277,18.0,23.0,47,0.00,,,0.01,Wunderground v.1.15,2013-05-11 23:31:00,
2013-05-11 18:37:00,51.2,30.0,30.03,NNW,327,19.0,28.0,44,0.00,,,0.01,Wunderground v.1.15,2013-05-11 23:37:00,
2013-05-11 18:42:00,51.0,28.1,30.03,NNW,339,20.0,26.0,41,0.00,,,0.01,Wunderground v.1.15,2013-05-11 23:42:00,
2013-05-11 18:48:00,50.8,27.9,30.02,West,276,19.0,28.0,41,0.00,,,0.01,Wunderground v.1.15,2013-05-11 23:48:00,
2013-05-11 18:55:00,50.8,27.9,30.02,NW,323,16.0,19.0,41,0.00,,,0.01,Wunderground v.1.15,2013-05-11 23:55:00,
2013-05-11 19:00:00,50.6,27.7,30.02,North,355,15.0,23.0,41,0.00,,,0.01,Wunderground v.1.15,2013-05-12 00:00:00,
2013-05-11 19:05:00,50.5,27.0,30.03,NNE,13,17.0,23.0,40,0.00,,,0.01,Wunderground v.1.15,2013-05-12 00:05:00,
2013-05-11 19:11:00,50.2,26.8,30.03,NW,308,18.0,20.0,40,0.00,,,0.01,Wunderground v.1.15,2013-05-12 00:11:00,
2013-05-11 19:16:00,50.0,27.8,30.03,NW,320,17.0,20.0,42,0.00,,,0.01,Wunderground v.1.15,2013-05-12 00:16:00,
2013-05-11 19:22:00,49.7,28.6,30.03,WNW,295,16.0,18.0,44,0.00,,,0.01,Wunderground v.1.15,2013-05-12 00:22:00,
2013-05-11 19:28:00,49.5,28.5,30.03,West,280,16.0,20.0,44,0.00,,,0.01,Wunderground v.1.15,2013-05-12 00:28:00,
2013-05-11 19:34:00,49.2,28.2,30.03,NNW,329,15.0,19.0,44,0.00,,,0.01,Wunderground v.1.15,2013-05-12 00:34:00,
2013-05-11 19:40:00,49.0,28.6,30.03,WNW,288,14.0,14.0,45,0.00,,,0.01,Wunderground v.1.15,2013-05-12 00:40:00,
2013-05-11 19:45:00,48.7,28.8,30.03,WNW,294,13.0,16.0,46,0.00,,,0.01,Wunderground v.1.15,2013-05-12 00:45:00,
2013-05-11 19:51:00,48.4,29.1,30.03,West,261,11.0,12.0,47,0.00,,,0.01,Wunderground v.1.15,2013-05-12 00:51:00,
2013-05-11 19:56:00,48.1,28.8,30.04,West,268,10.0,12.0,47,0.00,,,0.01,Wunderground v.1.15,2013-05-12 00:56:00,
2013-05-11 20:02:00,47.9,29.1,30.04,West,273,9.0,10.0,48,0.00,,,0.01,Wunderground v.1.15,2013-05-12 01:02:00,
2013-05-11 20:08:00,47.6,29.4,30.04,WNW,294,9.0,13.0,49,0.00,,,0.01,Wunderground v.1.15,2013-05-12 01:08:00,
2013-05-11 20:14:00,47.6,29.4,30.04,West,273,9.0,11.0,49,0.00,,,0.01,Wunderground v.1.15,2013-05-12 01:14:00,
2013-05-11 20:20:00,47.5,29.3,30.04,West,260,10.0,11.0,49,0.00,,,0.01,Wunderground v.1.15,2013-05-12 01:20:00,
2013-05-11 20:25:00,47.2,29.5,30.04,NW,316,10.0,11.0,50,0.00,,,0.01,Wunderground v.1.15,2013-05-12 01:25:00,
2013-05-11 20:31:00,46.8,29.6,30.05,WNW,283,9.0,9.0,51,0.00,,,0.01,Wunderground v.1.15,2013-05-12 01:31:00,
2013-05-11 20:36:00,46.3,29.6,30.05,WNW,286,8.0,9.0,52,0.00,,,0.01,Wunderground v.1.15,2013-05-12 01:36:00,
2013-05-11 20:42:00,45.9,29.7,30.05,West,277,7.0,8.0,53,0.00,,,0.01,Wunderground v.1.15,2013-05-12 01:42:00,
2013-05-11 20:48:00,45.6,29.9,30.05,West,277,6.0,8.0,54,0.00,,,0.01,Wunderground v.1.15,2013-05-12 01:48:00,
2013-05-11 20:55:00,45.4,30.2,30.05,WNW,286,5.0,7.0,55,0.00,,,0.01,Wunderground v.1.15,2013-05-12 01:55:00,
2013-05-11 21:00:00,45.0,30.2,30.05,West,280,5.0,5.0,56,0.00,,,0.01,Wunderground v.1.15,2013-05-12 02:00:00,
2013-05-11 21:06:00,44.7,30.0,30.05,WNW,291,5.0,7.0,56,0.00,,,0.01,Wunderground v.1.15,2013-05-12 02:06:00,
2013-05-11 21:11:00,44.5,29.8,30.05,WNW,291,4.0,4.0,56,0.00,,,0.01,Wunderground v.1.15,2013-05-12 02:11:00,
2013-05-11 21:17:00,44.3,29.6,30.05,WNW,291,3.0,5.0,56,0.00,,,0.01,Wunderground v.1.15,2013-05-12 02:17:00,
2013-05-11 21:22:00,44.3,30.4,30.06,WNW,291,2.0,3.0,58,0.00,,,0.01,Wunderground v.1.15,2013-05-12 02:22:00,
2013-05-11 21:28:00,43.6,30.6,30.06,WNW,291,1.0,3.0,60,0.00,,,0.01,Wunderground v.1.15,2013-05-12 02:28:00,
2013-05-11 21:35:00,43.2,30.2,30.06,WNW,291,1.0,2.0,60,0.00,,,0.01,Wunderground v.1.15,2013-05-12 02:35:00,
2013-05-11 21:40:00,43.2,29.8,30.06,WNW,291,2.0,2.0,59,0.00,,,0.01,Wunderground v.1.15,2013-05-12 02:40:00,
2013-05-11 21:45:00,43.3,29.9,30.06,WNW,291,2.0,4.0,59,0.00,,,0.01,Wunderground v.1.15,2013-05-12 02:45:00,
2013-05-11 21:51:00,43.5,29.7,30.06,WNW,291,2.0,3.0,58,0.00,,,0.01,Wunderground v.1.15,2013-05-12 02:51:00,
2013-05-11 21:56:00,43.3,29.5,30.06,WNW,291,2.0,3.0,58,0.00,,,0.01,Wunderground v.1.15,2013-05-12 02:56:00,
2013-05-11 22:02:00,43.3,29.5,30.06,WNW,287,3.0,4.0,58,0.00,,,0.01,Wunderground v.1.15,2013-05-12 03:02:00,
2013-05-11 22:08:00,42.9,29.5,30.06,WNW,286,3.0,4.0,59,0.00,,,0.01,Wunderground v.1.15,2013-05-12 03:08:00,
2013-05-11 22:14:00,42.7,29.4,30.06,WNW,286,2.0,4.0,59,0.00,,,0.01,Wunderground v.1.15,2013-05-12 03:14:00,
2013-05-11 22:20:00,42.4,29.5,30.06,WNW,282,3.0,5.0,60,0.00,,,0.01,Wunderground v.1.15,2013-05-12 03:20:00,
2013-05-11 22:25:00,42.0,29.5,30.07,WNW,299,3.0,5.0,61,0.00,,,0.01,Wunderground v.1.15,2013-05-12 03:25:00,
2013-05-11 22:31:00,41.4,29.7,30.07,WNW,299,4.0,6.0,63,0.00,,,0.01,Wunderground v.1.15,2013-05-12 03:31:00,
2013-05-11 22:37:00,41.3,29.6,30.07,West,279,5.0,6.0,63,0.00,,,0.01,Wunderground v.1.15,2013-05-12 03:37:00,
2013-05-11 22:43:00,41.8,29.3,30.07,WNW,290,5.0,7.0,61,0.00,,,0.01,Wunderground v.1.15,2013-05-12 03:43:00,
2013-05-11 22:48:00,41.9,29.4,30.07,West,281,6.0,8.0,61,0.00,,,0.01,Wunderground v.1.15,2013-05-12 03:48:00,
2013-05-11 22:55:00,41.8,29.7,30.07,WNW,291,6.0,8.0,62,0.00,,,0.01,Wunderground v.1.15,2013-05-12 03:55:00,
2013-05-11 23:00:00,41.5,29.4,30.08,WNW,283,6.0,6.0,62,0.00,,,0.01,Wunderground v.1.15,2013-05-12 04:00:00,
2013-05-11 23:01:00,41.5,29.4,30.08,WNW,286,6.0,6.0,62,0.00,,,0.01,Wunderground v.1.15,2013-05-12 04:01:00,
2013-05-11 23:02:00,41.5,29.8,30.08,WNW,297,6.0,8.0,63,0.00,,,0.01,Wunderground v.1.15,2013-05-12 04:02:00,
2013-05-11 23:04:00,41.4,29.7,30.08,NW,315,6.0,8.0,63,0.00,,,0.01,Wunderground v.1.15,2013-05-12 04:04:00,
2013-05-11 23:05:00,41.4,29.7,30.08,NW,314,7.0,9.0,63,0.00,,,0.01,Wunderground v.1.15,2013-05-12 04:05:00,
2013-05-11 23:06:00,41.4,29.7,30.08,WNW,287,7.0,9.0,63,0.00,,,0.01,Wunderground v.1.15,2013-05-12 04:06:00,
2013-05-11 23:11:00,41.4,29.7,30.08,WNW,302,8.0,17.0,63,0.00,,,0.01,Wunderground v.1.15,2013-05-12 04:11:00,
2013-05-11 23:16:00,42.0,29.9,30.08,NW,305,10.0,17.0,62,0.00,,,0.01,Wunderground v.1.15,2013-05-12 04:16:00,
2013-05-11 23:22:00,42.0,30.3,30.08,WNW,298,11.0,13.0,63,0.00,,,0.01,Wunderground v.1.15,2013-05-12 04:22:00,
2013-05-11 23:28:00,41.8,30.5,30.08,NW,311,9.0,13.0,64,0.00,,,0.01,Wunderground v.1.15,2013-05-12 04:28:00,
2013-05-11 23:34:00,41.9,30.6,30.09,NW,323,9.0,10.0,64,0.00,,,0.01,Wunderground v.1.15,2013-05-12 04:34:00,
2013-05-11 23:40:00,41.5,30.2,30.09,NW,304,9.0,10.0,64,0.00,,,0.01,Wunderground v.1.15,2013-05-12 04:40:00,
2013-05-11 23:45:00,41.5,30.2,30.09,WNW,298,8.0,10.0,64,0.00,,,0.01,Wunderground v.1.15,2013-05-12 04:45:00,
2013-05-11 23:51:00,41.5,30.2,30.09,WNW,300,7.0,7.0,64,0.00,,,0.01,Wunderground v.1.15,2013-05-12 04:51:00,
2013-05-11 23:56:00,41.1,29.8,30.09,West,276,6.0,7.0,64,0.00,,,0.01,Wunderground v.1.15,2013-05-12 04:56:00,